Regional Weather Roundup
Issued by NWS Albany, NY

Home | Current Version | Previous Version | Text Only | Print | Product List | Glossary On
Versions: 1 2 3 4 5 6 7 8 9 10 11 12 13 14 15 16 17 18 19 20 21 22 23 24 25 26 27 28 29 30 31 32 33 34 35 36 37 38 39 40 41 42 43 44 45 46 47 48 49 50
000
ASUS41 KALY 272210
RWRALY

NEW YORK STATE HOURLY WEATHER ROUNDUP
NATIONAL WEATHER SERVICE ALBANY NY
500 PM EST MON FEB 27 2017

NOTE: "FAIR" INDICATES FEW OR NO CLOUDS BELOW 12,000 FEET WITH NO
SIGNIFICANT WEATHER AND/OR NO OBSTRUCTIONS TO VISIBILITY.

NYZ032-033-038>043-046>054-057>066-NYZ062>081-082-084-272300-
EAST


CITY           SKY/WX    TMP DP  RH WIND       PRES   REMARKS
ALBANY         PTCLDY    52  19  27 SW13      30.27R
GLENS FALLS    CLOUDY    51  23  33 VRB6      30.24R
POUGHKEEPSIE   MOCLDY    51  18  27 SW12G24   30.32R
NEWBURGH       PTCLDY    50  23  34 SW17      30.33R
MONTGOMERY     CLEAR     50  25  37 SW15G25   30.31R
WHITE PLAINS   PTCLDY    47  30  51 S8        30.34R
ISLIP          CLOUDY    45  35  68 SW14G22   30.37F
NEW YORK CITY  CLOUDY    52  33  48 VRB7      30.36R
CENTRAL PARK   MOCLDY    53  21  28 W8        30.38R
$$

NYZ005>009-017-018-044>046-055-056-272300-
CENTRAL


CITY           SKY/WX    TMP DP  RH WIND       PRES   REMARKS
FULTON         PTCLDY    44  29  55 NW7       30.26R
SYRACUSE       CLOUDY    48  27  44 NW9       30.24R
ROME           CLOUDY    49  24  37 W8        30.25R
ELMIRA         CLOUDY    49  21  33 SW13      30.26R
BINGHAMTON     PTCLDY    45  18  34 SW14      30.25R
MONTICELLO     CLEAR    N/A N/A N/A SW9G17    30.30R
$$

NYZ026>034-041>043-087-272300-
NORTH


CITY           SKY/WX    TMP DP  RH WIND       PRES   REMARKS
WATERTOWN      CLOUDY    40  31  70 SW8       30.24R WCI  34
FORT DRUM      NOT AVBL
OGDENSBURG     FAIR      44  30  57 SW7       30.21R
MASSENA        PTCLDY    43  27  53 W10       30.20R
SARANAC LAKE   PTCLDY    37  26  64 SW10      30.15R WCI  30
PLATTSBURGH    PTCLDY    45  24  43 SW7G17    30.19R
$$

NYZ001>004-010>016-019>021-085-272300-
WEST


CITY           SKY/WX    TMP DP  RH WIND       PRES   REMARKS
NIAGARA FALLS  SUNNY     48  24  39 SW17G25   30.24R
BUFFALO        MOSUNNY   43  26  51 SW10      30.26R
DUNKIRK        CLOUDY    42  23  46 W9        30.28R
JAMESTOWN      CLOUDY    43  21  42 SW10      30.24R
WELLSVILLE     CLOUDY    44  21  40 SW17G23   30.25R
ROCHESTER      PTCLDY    50  22  33 W17G28    30.25R
$$

             KEY
       WCI = WIND CHILL INDEX
       VSB = VISIBILITY
       HX  = HEAT INDEX
$$



USA.gov is the U.S. government's official web portal to all federal, state and local government web resources and services.